[[{"header":{"parameterUnit":"m.s-1","parameterCategory":1,"la1":30.2991,"la2":30.254,"lo1":-89.0895,"lo2":-89.0444,"dy":0.0017,"dx":0.0017,"nx":28,"ny":28,"refTime":"2025-05-25T03:00:00:Z","depth":0,"parameterNumber":2,"parameterNumberName":"U-component_of_WINDS"},"data":[0,0,0,0,0,0,0,0,0,0,0,0,0,0,0,0,0,0,0,0,0,0,0,0,0,0,0,0,0,0,0,0,0,0,0,0,0,0,0,0,0,0,0,0,0,0,0,0,0,0,0,0,0,0,0,0,0,0,1.5001,1.5002,0,1.504,1.5041,1.5041,1.5015,1.5014,1.5013,1.5012,1.5052,1.5054,1.5057,0,0,0,0,0,0,0,0,0,0,0,0,0,1.4905,1.4907,1.5001,1.5002,1.5002,1.504,1.5041,1.5041,1.5016,1.5014,1.5013,1.5011,1.5052,1.5054,1.5057,0,0,0,0,0,0,0,0,0,0,0,0,0,1.4946,1.4907,1.5001,1.4994,1.4994,1.504,1.5041,1.5041,1.5016,1.5014,1.5012,1.5011,1.5051,1.5054,1.5057,1.5113,0,0,1.5067,1.5069,0,0,0,0,0,0,0,0,1.4943,1.4949,1.4995,1.4995,1.4994,1.5021,1.5021,1.5065,1.5016,1.5008,1.5012,1.501,1.5043,1.5047,1.5058,1.5115,1.5116,1.5067,1.5069,1.5071,1.5072,0,0,0,0,0,0,0,1.494,1.4947,1.5017,1.4995,1.4995,1.4989,1.4993,1.503,1.5035,1.5008,1.5006,1.5011,1.5043,1.5055,1.5059,1.5117,1.5067,1.507,1.5072,1.5073,1.522,1.5221,0,0,0,0,0,0,1.4938,1.4945,1.5015,1.5018,1.4964,1.4992,1.4996,1.5014,1.5034,1.5036,1.5013,1.501,1.5051,1.5055,1.506,1.5126,1.5071,1.5074,1.5076,1.5218,1.522,1.5222,0,0,0,0,0,0,1.4936,1.4945,1.5014,1.4981,1.4989,1.4996,1.5016,1.5016,1.5028,1.5038,1.5039,1.5024,1.5049,1.5056,1.51,1.5127,1.5075,1.5078,1.5215,1.5218,1.5221,1.5258,0,0,0,0,0,0,1.4934,1.4944,1.4966,1.4982,1.4991,1.5053,1.5018,1.5018,1.5034,1.5031,1.5049,1.505,1.5048,1.5095,1.5103,1.5131,1.5081,1.5213,1.5217,1.522,1.5254,1.5262,1.5268,0,0,0,0,0,1.493,1.4975,1.4967,1.4975,1.5018,1.5054,1.506,1.5056,1.5036,1.5057,1.5063,1.505,1.5123,1.51,1.5108,1.5137,1.5211,1.5216,1.522,1.5251,1.526,1.5268,0,0,0,0,0,0,1.4962,1.4977,1.4968,1.5019,1.5036,1.505,1.5077,1.5066,1.5089,1.5085,1.508,1.5084,1.513,1.5138,1.5112,1.5192,1.5164,1.517,1.5185,1.5193,1.52,1.5197,1.5084,0,0,0,0,0,1.4975,1.5003,1.5015,1.5058,1.5067,1.5071,1.5086,1.5082,1.5099,1.5106,1.5115,1.5132,1.5159,1.5177,1.5202,1.5256,1.5259,1.528,1.5287,1.5292,1.5298,1.5325,1.5335,1.5236,1.5236,1.5236,0,0,1.5002,1.5013,1.5032,1.5065,1.5077,1.5106,1.5077,1.5109,1.513,1.5111,1.5152,1.516,1.5179,1.5227,1.5249,1.5235,1.5325,1.5298,1.5302,1.5304,1.5331,1.534,1.5348,1.5239,1.5239,1.5238,0,0,1.5066,1.5078,1.5115,1.5128,1.5146,1.5148,1.5157,1.5173,1.5177,1.5219,1.5204,1.523,1.5276,1.529,1.5303,1.5371,1.5359,1.5379,1.5415,1.5442,1.545,1.5457,1.548,1.5489,1.5385,1.5385,1.5385,0,1.5097,1.514,1.5135,1.5169,1.5183,1.5167,1.5204,1.5217,1.5243,1.5254,1.5238,1.5295,1.5307,1.5358,1.5374,1.5386,1.5395,1.5377,1.5449,1.5456,1.5463,1.5485,1.5494,1.5387,1.5387,1.5387,1.5386,0,1.5177,1.5207,1.5235,1.526,1.5278,1.5313,1.5314,1.5333,1.5327,1.533,1.5372,1.5386,1.5413,1.5425,1.542,1.5475,1.5466,1.545,1.5422,1.5474,1.5495,1.5504,1.539,1.539,1.5389,1.5388,0,0,1.5262,1.5283,1.5293,1.5304,1.5323,1.5347,1.5381,1.5407,1.5423,1.5441,1.5469,1.5509,1.5494,1.5509,1.5505,1.5529,1.5581,1.551,1.5511,1.5522,1.5641,1.5652,1.5662,1.5573,1.5575,1.5576,1.5639,0,1.5326,1.5385,1.5382,1.5437,1.5464,1.5449,1.5479,1.5494,1.5498,1.5521,1.5526,1.5553,1.5532,1.5541,1.5564,1.557,1.5605,1.5565,1.5599,1.56,1.5594,1.5673,1.5685,1.5744,1.5648,1.5649,1.565,0,1.5408,1.5429,1.5487,1.5501,1.5513,1.5539,1.5562,1.5586,1.5602,1.5603,1.5619,1.5612,1.5646,1.5617,1.5664,1.5637,1.5651,1.5655,1.5658,1.566,1.5628,1.5677,1.5763,1.5772,1.5663,1.5662,1.5661,0,1.5463,1.5505,1.5545,1.5555,1.5573,1.5592,1.5601,1.5615,1.5631,1.5651,1.5661,1.5685,1.5699,1.5717,1.5716,1.5696,1.5763,1.5735,1.5765,1.5765,1.5779,1.5778,1.5868,1.579,1.579,1.5789,1.5789,0,1.5534,1.557,1.557,1.5595,1.5634,1.563,1.5669,1.5676,1.5689,1.5714,1.5703,1.5727,1.5724,1.5748,1.5748,1.5786,1.5792,1.5794,1.5793,1.5794,1.5794,1.5803,1.5798,1.5792,1.5791,1.5791,1.579,0,1.5602,1.5603,1.5646,1.5659,1.5663,1.5692,1.5703,1.5726,1.5729,1.5761,1.5768,1.5773,1.5801,1.5802,1.5834,1.5833,1.5879,1.5875,1.5874,1.5872,1.5902,1.5899,1.6,1.6012,1.5927,1.5928,1.5928,0,1.5647,1.5674,1.569,1.5706,1.5715,1.5741,1.5757,1.5754,1.577,1.5791,1.5811,1.5838,1.5859,1.5904,1.591,1.5934,1.5929,1.5963,1.5933,1.5933,1.5928,1.5926,1.5929,1.5968,1.5969,1.597,1.5971,0,1.5726,1.5725,1.5748,1.5771,1.579,1.5808,1.5825,1.5839,1.5837,1.5857,1.5885,1.5901,1.5933,1.5959,1.5983,1.5991,1.5981,1.598,1.5988,1.5989,1.5987,1.5988,1.5889,1.5978,1.5977,1.5977,1.5976,1.5976,1.5783,1.5806,1.582,1.5846,1.5858,1.5874,1.5896,1.5901,1.5925,1.595,1.5947,1.5978,1.5993,1.6023,1.6034,1.6058,1.6046,1.6058,1.6061,1.6063,1.6066,1.5984,1.6062,1.6062,1.6062,1.6061,1.6061,0,1.586,1.5869,1.5893,1.5916,1.5936,1.5925,1.5942,1.596,1.5987,1.6002,1.6022,1.6054,1.6079,1.6087,1.6112,1.6129,1.6125,1.6136,1.6134,1.6136,1.6076,1.6066,1.6139,1.6139,1.6139,1.6139,1.6139,1.6139,1.5903,1.5941,1.5942,1.5986,1.5994,1.6024,1.6035,1.6049,1.6061,1.6096,1.6117,1.6122,1.6134,1.6159,1.6182,1.6183,1.6192,1.6205,1.6205,1.6148,1.614,1.6133,1.6123,1.6207,1.6207,1.6262,1.6263,1.6263]},{"header":{"parameterUnit":"m.s-1","parameterCategory":1,"la1":30.2991,"la2":30.254,"lo1":-89.0895,"lo2":-89.0444,"dy":0.0017,"dx":0.0017,"nx":28,"ny":28,"refTime":"2025-05-25T03:00:00:Z","depth":0,"parameterNumber":3,"parameterNumberName":"V-component_of_WINDS"},"data":[0,0,0,0,0,0,0,0,0,0,0,0,0,0,0,0,0,0,0,0,0,0,0,0,0,0,0,0,0,0,0,0,0,0,0,0,0,0,0,0,0,0,0,0,0,0,0,0,0,0,0,0,0,0,0,0,0,0,2.294,2.2941,0,2.3059,2.306,2.3062,2.3063,2.3062,2.306,2.3059,2.3179,2.3183,2.3188,0,0,0,0,0,0,0,0,0,0,0,0,0,2.2711,2.2716,2.294,2.2941,2.2943,2.3059,2.306,2.3062,2.3064,2.3062,2.306,2.3058,2.3178,2.3183,2.3188,0,0,0,0,0,0,0,0,0,0,0,0,0,2.2818,2.2717,2.2939,2.2957,2.296,2.3058,2.306,2.3062,2.3064,2.3062,2.306,2.3057,2.3176,2.3182,2.3189,2.3276,0,0,2.321,2.3213,0,0,0,0,0,0,0,0,2.2812,2.2827,2.2953,2.2956,2.296,2.3044,2.3024,2.3134,2.3065,2.3025,2.3059,2.3056,2.3136,2.3146,2.3173,2.3282,2.3287,2.3211,2.3215,2.3218,2.322,0,0,0,0,0,0,0,2.2805,2.2822,2.2987,2.2955,2.2959,2.2959,2.2972,2.3045,2.3091,2.3028,2.3028,2.3043,2.3137,2.3166,2.3176,2.3289,2.3211,2.3217,2.3221,2.3224,2.3476,2.3478,0,0,0,0,0,0,2.2794,2.2816,2.2983,2.299,2.2879,2.2965,2.2979,2.3019,2.309,2.3099,2.3044,2.3042,2.3156,2.3168,2.318,2.3288,2.3218,2.3224,2.3228,2.3473,2.3477,2.3479,0,0,0,0,0,0,2.2789,2.2809,2.2978,2.2903,2.2925,2.2971,2.3016,2.3023,2.3052,2.3103,2.3111,2.3066,2.3154,2.317,2.3253,2.3292,2.3227,2.3234,2.347,2.3474,2.3478,2.3503,0,0,0,0,0,0,2.2783,2.2807,2.2842,2.2904,2.2929,2.305,2.3019,2.3027,2.3064,2.3063,2.3125,2.3134,2.3154,2.3242,2.326,2.33,2.3239,2.3467,2.3472,2.3477,2.3499,2.3507,2.3514,0,0,0,0,0,2.2775,2.2843,2.2843,2.2863,2.2972,2.3052,2.3066,2.3089,2.3067,2.3102,2.3134,2.3132,2.3284,2.3251,2.327,2.3313,2.3465,2.3471,2.3476,2.3495,2.3506,2.3514,0,0,0,0,0,0,2.2783,2.2852,2.2853,2.2944,2.2992,2.3052,2.3096,2.3099,2.3153,2.315,2.3175,2.3189,2.3271,2.33,2.3261,2.3402,2.3372,2.3382,2.338,2.339,2.3397,2.3389,2.3245,0,0,0,0,0,2.2796,2.2856,2.2912,2.2986,2.3011,2.3049,2.3085,2.3098,2.3149,2.3169,2.3208,2.3257,2.3316,2.3354,2.3411,2.3503,2.3516,2.3542,2.3549,2.3556,2.3564,2.3615,2.3627,2.3498,2.3498,2.3498,0,0,2.2823,2.2867,2.2903,2.2989,2.3028,2.3089,2.3067,2.3131,2.3176,2.3179,2.326,2.3289,2.3346,2.3433,2.3473,2.346,2.3603,2.3563,2.3567,2.3573,2.3622,2.3634,2.3645,2.3502,2.3502,2.3501,0,0,2.2902,2.2942,2.3009,2.3049,2.3109,2.3134,2.315,2.321,2.323,2.3311,2.3315,2.3368,2.3469,2.3509,2.3543,2.3638,2.3637,2.3655,2.3696,2.3745,2.3755,2.3765,2.3799,2.3811,2.3663,2.3664,2.3664,0,2.2928,2.302,2.3043,2.3109,2.3146,2.3152,2.322,2.3257,2.3332,2.3358,2.3341,2.3469,2.3507,2.3604,2.3627,2.3654,2.3673,2.3649,2.3752,2.3762,2.377,2.3804,2.3816,2.3665,2.3665,2.3665,2.3665,0,2.3048,2.3112,2.3159,2.3232,2.3275,2.3341,2.3374,2.3415,2.3424,2.3451,2.3533,2.3579,2.3646,2.367,2.3679,2.3769,2.3759,2.3747,2.3718,2.3784,2.3816,2.3829,2.3668,2.3667,2.3667,2.3666,0,0,2.3138,2.3223,2.324,2.3274,2.334,2.3389,2.3455,2.3522,2.3556,2.3607,2.3664,2.3749,2.3739,2.3777,2.3791,2.3834,2.3907,2.3818,2.3819,2.3833,2.4009,2.4018,2.4032,2.3907,2.3909,2.3911,2.4004,0,2.3225,2.3344,2.3367,2.347,2.3529,2.3535,2.3593,2.3639,2.3666,2.372,2.3748,2.3809,2.3791,2.3814,2.3857,2.3889,2.3943,2.3883,2.3959,2.3962,2.3946,2.4049,2.4058,2.4144,2.4017,2.4019,2.402,0,2.3343,2.3398,2.3508,2.3567,2.3592,2.3644,2.3707,2.3758,2.3811,2.3827,2.387,2.3879,2.3947,2.3914,2.4009,2.3968,2.4,2.4021,2.4024,2.4033,2.3996,2.4061,2.4172,2.4185,2.404,2.4038,2.4037,0,2.3398,2.35,2.3579,2.3607,2.3677,2.3714,2.3744,2.3795,2.3833,2.3888,2.3913,2.3974,2.4008,2.4055,2.408,2.4053,2.4173,2.4142,2.4188,2.4188,2.4214,2.4212,2.4333,2.4233,2.4233,2.4233,2.4233,0,2.3494,2.3561,2.3605,2.3653,2.3728,2.3753,2.3827,2.3857,2.3902,2.3956,2.3964,2.4014,2.4044,2.4099,2.4119,2.4195,2.4209,2.4224,2.4229,2.4225,2.4223,2.4247,2.4242,2.4236,2.4236,2.4235,2.4234,0,2.3569,2.3601,2.3687,2.3747,2.3763,2.3816,2.3867,2.3914,2.394,2.4009,2.4026,2.4067,2.4132,2.4162,2.4241,2.4255,2.4342,2.4341,2.4324,2.4326,2.4371,2.4367,2.4513,2.4533,2.4419,2.442,2.4421,0,2.3628,2.368,2.3745,2.3783,2.3815,2.3875,2.3914,2.394,2.3981,2.4045,2.4085,2.415,2.4204,2.4307,2.4344,2.4405,2.4407,2.4453,2.4416,2.441,2.4409,2.4406,2.4411,2.446,2.4462,2.4462,2.4463,0,2.3731,2.3744,2.3801,2.3864,2.3911,2.3962,2.4011,2.4041,2.4075,2.412,2.4187,2.4229,2.4311,2.4375,2.4439,2.447,2.4473,2.4475,2.4489,2.4485,2.4473,2.4481,2.4344,2.4471,2.4471,2.447,2.4469,2.4469,2.3801,2.3847,2.3901,2.3964,2.4004,2.405,2.4098,2.413,2.4187,2.4256,2.4268,2.4339,2.4391,2.4476,2.451,2.4565,2.4554,2.4574,2.458,2.4585,2.4588,2.4464,2.4577,2.4577,2.4576,2.4576,2.4576,0,2.3904,2.3939,2.3997,2.4067,2.4116,2.4115,2.4169,2.4211,2.4274,2.4322,2.4375,2.4452,2.4515,2.4557,2.462,2.4657,2.466,2.4673,2.4671,2.4678,2.4594,2.4576,2.4669,2.4669,2.4669,2.4669,2.4669,2.4669,2.3964,2.4043,2.4063,2.4162,2.4196,2.4267,2.4298,2.4341,2.4379,2.4465,2.4518,2.4545,2.459,2.4657,2.4715,2.4725,2.4749,2.4762,2.4773,2.4693,2.4684,2.4674,2.4658,2.4767,2.4767,2.4852,2.4853,2.4854]}]]